Find Starlink 1741

NORAD ID: 46567 Int'l Des: 2020-070 Owner: SPXS Country: US Constellation: starlink decayed
LEOCIRCULAR

Re-entered — Jul 3, 2026

3D地球を読み込み中...

About Starlink 1741

Starlink 1741 (NORAD 46567) is a starlink constellation satellite (v1.0) launched Oct 6, 2020 by SPXS of US. It re-entered the atmosphere on Jul 3, 2026. with a mass of 260.00 kg.

高度履歴

Loading altitude history...

軌道要素

1 46567U 20070AM 26184.45793223 .07987208 12403-4 72477-3 0 9998
2 46567 53.0152 256.3391 0007819 319.9532 40.0936 16.38061958318643
Epoch: Jul 3, 2026 • Age: 548 hours

現在のステータス

Position data unavailable
打ち上げ日 Oct 6, 2020
運用期間 5.7 years
落下予定日 Jul 3, 2026
タイプ internet

技術仕様

分類 Payload
質量 260.00 kg
乾燥質量 248.00 kg
総質量 260.00 kg
長さ 0.20 m
直径 2.80 m
スパン 9.00 m
形状 Box + pan
製造者 SPXS
バスタイプ Starlink
フェーズステータス Unknown Transfer Status
所有者/国 SPXS/US

Most Searched